Regional Weather Roundup
Issued by NWS

Home | Current Version | Previous Version | Graphics & Text | Print | Product List | Glossary Off
Versions: 1 2 3 4 5 6 7 8 9 10 11 12 13 14 15 16 17 18 19 20 21 22 23 24 25 26 27 28 29 30 31 32 33 34 35 36 37 38 39 40 41 42 43 44 45 46 47 48 49 50

000
ASUS43 KMKX 040400
RWRWI

WISCONSIN REGIONAL WEATHER ROUNDUP
NATIONAL WEATHER SERVICE MILWAUKEE/SULLIVAN WI
1100 PM CDT FRI JUL 03 2015

NOTE: "FAIR" INDICATES FEW OR NO CLOUDS BELOW 12,000 FEET WITH NO
SIGNIFICANT WEATHER AND/OR OBSTRUCTIONS TO VISIBILITY.

WIZ001-002-006>008-014>016-023>028-040500-
NORTHWEST WISCONSIN

CITY           SKY/WX    TMP DP  RH WIND       PRES   REMARKS
SUPERIOR ARPT  CLEAR     60  58  92 CALM      29.88R
ASHLAND        PTCLDY    64  63  96 CALM      29.89R FOG
HAYWARD        CLEAR     62  60  93 CALM      29.92R
SIREN          MOCLDY    69  63  79 CALM      29.91R
CUMBERLAND     CLOUDY    68  59  73 NE10      29.93R
RICE LAKE      LGT RAIN  68  61  78 N6        29.94R
CHETEK         NOT AVBL
LADYSMITH      PTCLDY    67  60  78 CALM      29.93S
EAU CLAIRE     NOT AVBL
MENOMONIE      PTCLDY    67  58  73 SW3       29.91S
NEW RICHMOND   MOCLDY    66  59  79 S3        29.92R
OSCEOLA        CLEAR     66  63  90 CALM      29.93S
$$

WIZ003>005-009-010-017-018-040500-
NORTH CENTRAL WISCONSIN

CITY           SKY/WX    TMP DP  RH WIND       PRES   REMARKS
MANITOWISH WTR MOCLDY    60  60 100 CALM      29.92F FOG
ARBOR VITAE    CLOUDY    62  60  92 CALM      29.92S
WOODRUFF       CLOUDY    62  60  92 CALM      29.92S
RHINELANDER    CLOUDY    63  59  87 W7        29.93F
EAGLE RIVER    PTCLDY    61  60  99 SW3       29.91S
LAND O LAKES     N/A     60  57  89 CALM      29.93R FOG
PHILLIPS       MOCLDY    64  60  87 CALM      29.92R
TOMAHAWK       RAIN      63  59  85 NW6       29.95R
MEDFORD        PTCLDY    64  58  81 CALM      29.94R
MERRILL        CLOUDY    64  59  83 CALM      29.94R
$$

WIZ029-030-035-036-043>047-040500-
CENTRAL WISCONSIN

CITY           SKY/WX    TMP DP  RH WIND       PRES   REMARKS
WAUSAU         MOCLDY    68  57  68 NW3       29.91R
MOSINEE        PTCLDY    64  55  72 W6        29.94R
MARSHFIELD     PTCLDY    64  56  75 CALM      29.94R
STEVENS POINT  PTCLDY    62  56  82 CALM      29.94R
WAUPACA        CLEAR     65  58  78 CALM      29.92R
WAUTOMA        NOT AVBL
WISC RAPIDS    PTCLDY    62  57  83 CALM      29.94R
CAMP DOUGLAS   NOT AVBL
$$

WIZ011>013-019>022-031-037>040-048>050-040500-
NORTHEAST WISCONSIN

CITY           SKY/WX    TMP DP  RH WIND       PRES   REMARKS
ANTIGO         CLOUDY    63  57  83 W5        29.93S
SHAWANO        PTCLDY    67  59  74 CALM      29.91R
OCONTO         CLEAR     60  58  94 CALM      29.89R
STURGEON BAY   CLEAR     63  52  67 SW6       29.92S
GREEN BAY      CLEAR     65  57  75 CALM      29.91R
MANITOWOC      NOT AVBL
APPLETON       MOCLDY    64  55  72 SW6       29.92R
CLINTONVILLE   PTCLDY    63  57  82 CALM      29.90S
OSHKOSH        CLEAR     65  56  72 SW6       29.91S
$$

WIZ032>034-041-042-053>061-040500-
SOUTHWEST WISCONSIN

CITY           SKY/WX    TMP DP  RH WIND       PRES   REMARKS
LA CROSSE      CLEAR     65  60  84 SE5       29.92S
SPARTA         CLEAR     60  57  92 CALM      29.94R
VIROQUA        CLEAR     65  59  80 CALM      29.95S
BOSCOBEL       CLEAR     59  57  93 CALM      29.94R
PRAIRIE DU CHI CLEAR     62  58  86 CALM      29.94R
PLATTEVILLE    CLEAR     65  53  63 CALM      29.95S
$$

WIZ056-057-062-063-064-067-068-040500-
SOUTH CENTRAL WISCONSIN

CITY           SKY/WX    TMP DP  RH WIND       PRES   REMARKS
REEDSBURG      CLEAR     63  59  85 CALM      29.94R
BARABOO/DELLS  CLEAR     63  56  79 CALM      29.94R
LONE ROCK      NOT AVBL
MINERAL POINT  CLEAR     64  54  68 SW3       29.96R
MADISON        CLEAR     62  54  74 CALM      29.94R
MIDDLETON      CLEAR     61  58  91 CALM      29.95R
WATERTOWN      CLEAR     59  59  99 CALM      29.93R
MONROE         CLEAR     66  54  63 W9        29.95S
JANESVILLE     CLEAR     63  61  94 CALM      29.94R
$$

WIZ051-052-058>065-066-070>072-040500-
SOUTHEAST WISCONSIN

CITY           SKY/WX    TMP DP  RH WIND       PRES   REMARKS
MILWAUKEE      MOCLDY    63  51  65 S5        29.94R
WAUKESHA       CLEAR     61  52  72 CALM      29.95S
MILWAUKEE/TIMM CLEAR     63  48  59 CALM      29.95R
RACINE         CLEAR     60  53  77 SW3       29.96R
BURLINGTON     CLEAR     56  54  94 CALM      29.94S
KENOSHA        CLEAR     58  53  84 CALM      29.95R
FOND DU LAC    CLEAR     65  56  72 SW6       29.92R
SHEBOYGAN      CLEAR     57  52  83 SW3       29.93R
WEST BEND      CLEAR     59  52  77 CALM      29.94R
JUNEAU         CLEAR     63  54  72 CALM      29.94S
$$

LSZ147-162-040500-
LAKE SUPERIOR

STATION/POSITION TIME  TEMP    WIND        PRES    WAVE
                       AIR SEA DIR/SP/G            HT/PER
                 (UTC) (F)     (DEG/KT/KT) (MB)    (FT/S)
W MID LAKE BUOY  0250   52 39   40/  2/  4 1011.3R   1/ 4
DEVILS ISLAND    0300   72     340/  6/  7 1011.3R
SAXON HARBOR     0300   66      CALM  /  5 1011.2
$$

LMZ867-665-643>646-040500-
LAKE MICHIGAN

STATION/POSITION TIME  TEMP    WIND        PRES    WAVE
                       AIR SEA DIR/SP/G            HT/PER
                 (UTC) (F)     (DEG/KT/KT) (MB)    (FT/S)
CHAMBERS ISLAND  0300   67     170/  4/  8 1011.9R
N MID LAKE BUOY  0250   51 43  200/ 10/ 12 1011.8R   2/ 4
NORTHPORT PIER   0300   64     180/  3/  7 1011.9R
SISTER BAY       0344   65     180/  7/  9   N/A
ALGOMA LAKESHORE 0325          210/  7/  8   N/A
KEWAUNEE LAKESHO 0300   63     170/  2/  4 1012.1R
SHEBOYGAN LAKESH 0300   63     210/  9/  9 1013.5R
PORT WASHINGTON  0300   62     180/  1/  2 1014.2
ATWATER BUOY     0300   62 61  170/  4/  4 1014.9R
MILWAUKEE LAKESH 0300   63     180/  5/  6   N/A
KENOSHA   LAKESH 0300   63     210/  4/  5 1013.5R
$$

TC  - TEMPERATURE IN CELSIUS
VSB - VISIBILITY IN STATUTE MILES
WCI - WIND CHILL INDEX
HX  - HEAT INDEX




USA.gov is the U.S. government's official web portal to all federal, state and local government web resources and services.